Regional Weather Roundup
Issued by NWS Cleveland, OH

Home | Current Version | Previous Version | Graphics & Text | Print | Product List | Glossary On
Versions: 1 2 3 4 5 6 7 8 9 10 11 12 13 14 15 16 17 18 19 20 21 22 23 24 25 26 27 28 29 30 31 32 33 34 35 36 37 38 39 40 41 42 43 44 45 46 47 48 49 50
000
ASUS41 KCLE 201402
RWRCLE
OHIO REGIONAL WEATHER ROUNDUP
NATIONAL WEATHER SERVICE CLEVELAND, OH
1000 AM EDT THU JUL 20 2017

NOTE: "FAIR" INDICATES FEW OR NO CLOUDS BELOW 12,000 FEET WITH NO
SIGNIFICANT WEATHER AND/OR OBSTRUCTIONS TO VISIBILITY.

OHZ001>008-015>018-024>027-034-035-043-044-201500-
   NORTHWEST OHIO

CITY           SKY/WX    TMP DP  RH WIND       PRES   REMARKS
DEFIANCE       CLOUDY    77  66  68 W6G16     30.06R
FINDLAY        MOSUNNY   81  71  71 SW15G21   30.04F
TOLEDO EXPRESS CLOUDY    79  69  71 W15       30.04R
TOLEDO EXEC    MOSUNNY   80  70  71 W15G23    30.04R
LIMA           MOSUNNY   79  72  79 SW13      30.09R
$$

OHZ009>014-019>023-028>033-038-089-201500-
   NORTHEAST OHIO

CITY           SKY/WX    TMP DP  RH WIND       PRES   REMARKS
CLE-HOPKINS    PTSUNNY   84  73  69 SW10      30.03F HX  90
CLE-LAKEFRONT  MOSUNNY   84  71  65 SW13G23   29.99F
CUY CO. ARPT   CLOUDY    84  68  58 SW10G20   30.02F
LORAIN-ELYRIA  MOSUNNY   80  69  69 SW15      30.01F
ASHTABULA      CLOUDY    81  72  74 SW12      30.03F
AKRON-CANTON   PTSUNNY   82  70  66 SW12      30.06F
WOOSTER        SUNNY     80  72  76 SW10      30.07F
MANSFIELD      MOSUNNY   81  72  74 SW16G23   30.07F
YOUNGSTOWN     CLOUDY    82  70  66 S9        30.05F
$$

OHZ042-051>053-060>062-070>072-077>081-201500-
  SOUTHWEST OHIO

CITY           SKY/WX    TMP DP  RH WIND       PRES   REMARKS
CINC-COVINGTON CLOUDY    78  73  84 SW3       30.14R
CINC-LUNKEN    CLOUDY    79  73  82 CALM      30.13R
HAMILTON       CLOUDY    79  73  82 SW5       30.13S
DAYTON         CLOUDY    79  73  82 SW9       30.13R
WRIGHT-PAT AFB CLOUDY    81  75  83 SW8       30.11F
DAYTON GENERAL PTSUNNY   79  72  79 SW7       30.12S
WILMINGTON     MOSUNNY   80  73  79 W9        30.13S
$$

OHZ036-037-039>041-045>050-054>059-063>069-073>076-082>088-201500-
  CENTRAL AND SOUTHEAST OHIO

CITY           SKY/WX    TMP DP  RH WIND       PRES   REMARKS
COLUMBUS       PTSUNNY   81  73  76 SW9       30.10R
OSU AIRPORT    MOSUNNY   81  74  79 W10       30.10S
BOLTON FIELD   SUNNY     81  73  78 SW8       30.11F
RICKENBACK AFB MOSUNNY   77  73  85 SW6       30.10S
NEWARK         CLOUDY    81  72  74 W9        30.09S
MARION         MOSUNNY   81  72  74 SW10      30.08F
LANCASTER      PTSUNNY   79  73  82 W7        30.11R
ZANESVILLE     CLOUDY    79  71  76 SW5       30.10S
NEW PHILLY     NOT AVBL
$$




USA.gov is the U.S. government's official web portal to all federal, state and local government web resources and services.